Weather History for LEGR - February, 2013

Change the Weather History Date:

Sunday, February 10, 2013

  Actual Average Record
Temperature  
Mean Temperature 42 °F -  
Max Temperature 58 °F 60 °F 68 °F (2000)
Min Temperature 25 °F 35 °F 21 °F (2012)
Degree Days  
Heating Degree Days 24    
Moisture  
Dew Point 29 °F    
Average Humidity 62    
Maximum Humidity 93    
Minimum Humidity 28    
Precipitation  
Precipitation 0.00 in - - ()
Sea Level Pressure  
Sea Level Pressure 30.16 in    
Wind  
Wind Speed 2 mph ()    
Max Wind Speed 13 mph    
Max Gust Speed -    
Visibility 7.7 miles    
Events      
Averages and records for this station are not official NWS values.
T = Trace of Precipitation, MM = Missing Value Source: Averaged Metar Reports

Daily Weather History Graph

Daily Weather History Graph

Search for Another Location

Airport or City:

Trip Planner

Search our weather history database for the weather conditions in past years. The results will help you decide how hot, cold, wet, or windy it might be!

Date:

Astronomy

Feb. 10, 2013 Rise Set
Actual Time 8:09 AM CET 6:49 PM CET
Civil Twilight 7:42 AM CET 7:16 PM CET
Nautical Twilight 7:11 AM CET 7:47 PM CET
Astronomical Twilight 6:41 AM CET 8:17 PM CET
Moon 7:51 AM CET (2/10) 7:22 PM CET (2/10)
Length of Visible Light 11h 34m
Length of Day
10h 40m
New Moon, 0% of the Moon is Illuminated
Feb 10
New Moon
Feb 17
First Quarter
Feb 25
Full
Mar 4
Last Quarter
Mar 11
New

Hourly Weather History & Observations

Time (CET) Temp. Windchill Dew Point Humidity Pressure Visibility Wind Dir Wind Speed Gust Speed Precip Events Conditions
1:00 AM 31 °F - 24 °F 66% 30.39 in 19 mi Calm Calm - -  
6:00 AM 26.6 °F - 24.8 °F 93% 30.24 in - Calm Calm - N/A   Clear
6:30 AM 26.6 °F - 24.8 °F 93% 30.24 in - Calm Calm - N/A   Clear
7:00 AM 25 °F - 21 °F 77% 30.36 in 12 mi Calm Calm - -  
7:00 AM 26.6 °F - 24.8 °F 93% 30.24 in - Calm Calm - N/A   Clear
7:30 AM 26.6 °F - 24.8 °F 93% 30.24 in - Variable 2.3 mph - N/A   Clear
8:00 AM 26.6 °F - 24.8 °F 93% 30.24 in - Calm Calm - N/A   Clear
8:30 AM 26.6 °F - 24.8 °F 93% 30.24 in - Variable 1.2 mph - N/A   Clear
9:00 AM 28.4 °F - 24.8 °F 86% 30.24 in - Calm Calm - N/A   Clear
9:30 AM 30.2 °F - 28.4 °F 93% 30.27 in - Calm Calm - N/A   Clear
10:00 AM 35.6 °F - 30.2 °F 81% 30.24 in 6.2 mi Calm Calm - N/A   Partly Cloudy
10:30 AM 37.4 °F - 30.2 °F 75% 30.24 in 6.2 mi Calm Calm - N/A   Partly Cloudy
11:00 AM 37.4 °F - 32.0 °F 81% 30.24 in 6.2 mi Variable 1.2 mph - N/A   Partly Cloudy
11:30 AM 39.2 °F - 32.0 °F 75% 30.24 in 6.2 mi Variable 1.2 mph - N/A   Partly Cloudy
12:00 PM 42.8 °F - 33.8 °F 70% 30.24 in 6.2 mi Calm Calm - N/A   Partly Cloudy
12:30 PM 46.4 °F - 33.8 °F 62% 30.21 in 6.2 mi Calm Calm - N/A   Partly Cloudy
1:00 PM 49 °F - 31 °F 38% 30.22 in 16 mi Calm Calm - -   Scattered Clouds
1:00 PM 48.2 °F - 33.8 °F 58% 30.21 in 6.2 mi Calm Calm - N/A   Partly Cloudy
1:30 PM 50.0 °F - 33.8 °F 54% 30.18 in 6.2 mi Calm Calm - N/A   Partly Cloudy
2:00 PM 51.8 °F - 33.8 °F 50% 30.15 in 6.2 mi Calm Calm - N/A   Partly Cloudy
2:30 PM 53.6 °F - 32.0 °F 44% 30.12 in 6.2 mi WSW 4.6 mph - N/A   Partly Cloudy
3:00 PM 53.6 °F - 28.4 °F 38% 30.12 in 6.2 mi WNW 4.6 mph - N/A   Partly Cloudy
3:30 PM 57.2 °F - 24.8 °F 29% 30.09 in - Variable 4.6 mph - N/A   Clear
4:00 PM 57.2 °F - 30.2 °F 36% 30.09 in - WNW 6.9 mph - N/A   Clear
4:30 PM 57.2 °F - 30.2 °F 36% 30.09 in - Variable 8.1 mph - N/A   Clear
5:00 PM 57.2 °F - 24.8 °F 29% 30.06 in - WNW 12.7 mph - N/A   Clear
5:30 PM 55.4 °F - 30.2 °F 38% 30.06 in - WNW 6.9 mph - N/A   Clear
6:00 PM 55.4 °F - 30.2 °F 38% 30.06 in - West 9.2 mph - N/A   Clear
6:30 PM 51.8 °F - 30.2 °F 44% 30.06 in 6.2 mi Variable 2.3 mph - N/A   Partly Cloudy
7:00 PM 50 °F - 27 °F 28% 30.08 in 16 mi West 6.9 mph - -   Overcast
7:00 PM 50.0 °F - 30.2 °F 47% 30.06 in 6.2 mi West 6.9 mph - N/A   Partly Cloudy
7:30 PM 48.2 °F - 30.2 °F 50% 30.06 in 6.2 mi West 3.5 mph - N/A   Partly Cloudy
8:00 PM 44.6 °F - 32.0 °F 61% 30.06 in 6.2 mi Variable 2.3 mph - N/A   Scattered Clouds
8:30 PM 44.6 °F - 32.0 °F 61% 30.06 in 6.2 mi Variable 2.3 mph - N/A   Scattered Clouds
9:00 PM 42.8 °F 41.1 °F 32.0 °F 66% 30.04 in 6.2 mi SW 3.5 mph - N/A   Scattered Clouds
9:30 PM 44.6 °F 42.2 °F 32.0 °F 61% 30.04 in 6.2 mi WSW 4.6 mph - N/A   Scattered Clouds
10:00 PM 46.4 °F 42.9 °F 32.0 °F 57% 30.04 in 6.2 mi West 6.9 mph - N/A   Scattered Clouds
10:30 PM 46.4 °F 43.5 °F 33.8 °F 62% 30.04 in 6.2 mi West 5.8 mph - N/A   Scattered Clouds
11:00 PM 46.4 °F 43.5 °F 35.6 °F 66% 30.04 in 6.2 mi WNW 5.8 mph - N/A   Scattered Clouds